Location: Newark
(34.9500°N, 139.9667°E)
Time: 22:35:29
(UTC+00:00)

Vanguard 2 Rocket - Pass Details

Date: 16 December 2019
Orbit: 554 x 3326 km, 32.9° (Epoch: 22 January)

Event Time Altitude Azimuth Distance (km) Brightness Sun altitude
Rises 05:42:00 0° 231° (SW) 7,278 13.2 16.9°
Reaches altitude 10° 05:47:03 10° 228° (SW) 6,278 14.0 16.2°
Maximum altitude 06:06:14 57° 156° (SSE) 3,180 10.0 13.3°
Drops below altitude 10° 06:19:26 10° 83° (E) 4,503 10.0 11.2°
Sets 06:22:23 0° 79° (E) 5,187 10.2 10.7°
